| time (UTC) | temp F | wind direction | speed MPH | gust MPH | rain 1hr in | rain 24hr in | rain mn in | humidity % | barometer mb |
| 20260507190005 | 64 | 263 | 1.0 | 10.0 | 0.00 | 0.00 | 0.00 | 64 | 1024.5 |
| 20260507184504 | 63 | 259 | 3.0 | 10.0 | 0.00 | 0.00 | 0.00 | 64 | 1024.7 |
| 20260507183004 | 61 | 299 | 0.0 | 8.0 | 0.00 | 0.00 | 0.00 | 66 | 1024.8 |
| 20260507180004 | 60 | 252 | 1.0 | 10.0 | 0.00 | 0.00 | 0.00 | 67 | 1025.1 |
| 20260507174504 | 60 | 267 | 2.0 | 6.0 | 0.00 | 0.00 | 0.00 | 70 | 1025.2 |
| 20260507173004 | 59 | 255 | 1.0 | 7.0 | 0.00 | 0.00 | 0.00 | 69 | 1025.5 |
| 20260507171504 | 58 | 267 | 1.0 | 6.0 | 0.00 | 0.00 | 0.00 | 69 | 1025.6 |
| 20260507170005 | 58 | 173 | 2.0 | 6.0 | 0.00 | 0.00 | 0.00 | 71 | 1025.5 |
| 20260507164505 | 56 | 287 | 1.0 | 3.0 | 0.00 | 0.00 | 0.00 | 74 | 1025.4 |
| 20260507163005 | 56 | 257 | 1.0 | 6.0 | 0.00 | 0.00 | 0.00 | 75 | 1025.5 |
| 20260507161504 | 56 | 268 | 1.0 | 6.0 | 0.00 | 0.00 | 0.00 | 75 | 1025.5 |
| 20260507160005 | 55 | 258 | 1.0 | 3.0 | 0.00 | 0.00 | 0.00 | 76 | 1025.5 |
| 20260507154505 | 54 | 234 | 1.0 | 5.0 | 0.00 | 0.00 | 0.00 | 75 | 1025.5 |
| 20260507153004 | 54 | 230 | 1.0 | 3.0 | 0.00 | 0.00 | 0.00 | 77 | 1025.5 |
| 20260507151505 | 53 | 275 | 1.0 | 6.0 | 0.00 | 0.00 | 0.00 | 79 | 1025.7 |
| 20260507150005 | 53 | 238 | 2.0 | 6.0 | 0.00 | 0.00 | 0.00 | 78 | 1025.5 |
| 20260507143005 | 53 | 248 | 0.0 | 5.0 | 0.00 | 0.00 | 0.00 | 79 | 1025.4 |
| 20260507141504 | 52 | 257 | 1.0 | 8.0 | 0.00 | 0.00 | 0.00 | 78 | 1025.4 |
| 20260507140006 | 52 | 244 | 1.0 | 7.0 | 0.00 | 0.00 | 0.00 | 80 | 1025.2 |
| 20260507134504 | 52 | 258 | 3.0 | 8.0 | 0.00 | 0.00 | 0.00 | 80 | 1025.1 |
| 20260507133005 | 52 | 260 | 1.0 | 7.0 | 0.00 | 0.00 | 0.00 | 80 | 1025.2 |
| 20260507131505 | 52 | 238 | 3.0 | 5.0 | 0.00 | 0.00 | 0.00 | 79 | 1025.2 |
| 20260507130004 | 52 | 259 | 1.0 | 6.0 | 0.00 | 0.00 | 0.00 | 79 | 1025.3 |
| 20260507124504 | 53 | 232 | 5.0 | 10.0 | 0.00 | 0.00 | 0.00 | 79 | 1025.3 |
| 20260507123004 | 53 | 251 | 3.0 | 7.0 | 0.00 | 0.00 | 0.00 | 79 | 1025.2 |
| 20260507114505 | 53 | 257 | 3.0 | 7.0 | 0.00 | 0.00 | 0.00 | 80 | 1025.3 |
| 20260507113004 | 54 | 264 | 3.0 | 10.0 | 0.00 | 0.00 | 0.00 | 79 | 1025.3 |
| 20260507111506 | 54 | 246 | 3.0 | 9.0 | 0.00 | 0.00 | 0.00 | 80 | 1025.4 |
| 20260507110006 | 54 | 271 | 3.0 | 9.0 | 0.00 | 0.00 | 0.00 | 80 | 1025.4 |
| 20260507104504 | 54 | 264 | 3.0 | 9.0 | 0.00 | 0.00 | 0.00 | 80 | 1025.4 |
| 20260507103005 | 54 | 269 | 4.0 | 12.0 | 0.00 | 0.00 | 0.00 | 80 | 1025.5 |
| 20260507101506 | 54 | 242 | 3.0 | 12.0 | 0.00 | 0.00 | 0.00 | 80 | 1025.7 |
| 20260507100005 | 54 | 274 | 3.0 | 12.0 | 0.00 | 0.00 | 0.00 | 80 | 1025.7 |